Showing default

DODGE 1, 2867

Orbit data source: Space-Track

DODGE 1, 2867 is a payload satellite owned by USN NAVAIR (US) in GEO that was launched on Sat, 01 Jul 1967 UTC via a TITAN IIIC launch vehicle from the Air Force Eastern Test Range (AFETR). Payload-class satellites include a variety of spacecraft equipped with specific instruments for various scientific and technological missions. These include communications satellites like Starlink; space stations such as the ISS; scientific satellites like the Hubble; Earth observation satellites from companies like Planet Labs, Umbra, and HawkEye 360; GPS; miniature CubeSats for education and research; and military/defense satellites.

Loading next visibility...
Identifier
2867, 1967-066F
Orbit
GEO
Country
Flag of USUS
Related business
Manufacturer
APL
Mission
Defense Technology
Bus & Motor
DODGE, Unknown motor
Mass
195 kg wet, 195 kg dry
Launch date (UTC)
1967-07-01 (58 years ago)
Launch vehicle
TITAN IIIC
Launch site
Air Force Eastern Test Range (AFETR)
Object type
Payload
Rocket body
Debris
Shape & HBR
Step Cyl + 2 Rod, 23.0 m
Radar Cross Section
2.570 m², Large (>1 m²)

Expand to show TLE details & history
Last TLE update: 19 hours ago

TLE from 19 hours ago
0 DODGE 1
1 02867U 67066F   25242.22367443 -.00000103  00000-0  00000-0 0  9999
2 02867   1.8292 108.7957 0053223 175.7148  47.2185  1.09168246130202
Epoch: 2025-08-30T05:22Z
TLE epoch observation values (Epoch: 2025-08-30T05:22:05.47Z)
Latitude
-1.26106°
Longitude
-87.02651°
Altitude
33,319.321 km
Speed
3.175 km/s
True Right ascension
22h 08m 37s
True Declination
-1° 15' 35"
Sunlit
Object was in daylight at epoch
Visualization orbit readout
Latitude
Unknown
Longitude
Unknown
Altitude
Unknown
Speed
Unknown
Apparent Right ascension
Unknown
Apparent Declination
Unknown
Sunlit
N/A
Visualization observer readout
Local Sidereal Time
15:40:41
Azimuth
Unknown
Elevation
Unknown
Doppler factor
Unknown
Orbital elements
Apogee altitude
33,676.724 km
Perigee altitude
33,252.614 km
Semi-major axis
39,842.806 km
Eccentricity
0.00532
Inclination
1.8292°
RAAN
108.7957°
Arg. of periapsis
175.7148°
True anomaly
47.66816°
Mean anomaly
47.2185°
Eccentric anomaly
47.44312°
Mean motion
0.27291 °/min
Orbital period
1,319.12 mins
BSTAR
0
Loading maneuver chart data...
Computing Atmospheric mass density...
Loading historical data...
Loading historical data...
Loading historical data...
Loading historical data...
Loading historical data...
Loading historical data...
Loading historical data...

Documentation

Showing up to 5 results
|